User: anonymous   Login
Location: Columbus
(29.5618°N, 96.6770°W)
Time: 07:07:56
(UTC-05:00)
Language:

Cosmos 2056 Rocket - Orbit

View from above orbital plane
View from above orbital plane
View from above satellite
View from above satellite

Ground track
Ground track

The orbit data is extracted from the following two-line orbital elements,

1 20433U 90004B   14303.14964884  .00000321  00000-0  11914-3 0  8589
2 20433 074.0357 320.1574 0042240 322.5364 096.8605 14.35696989297269
Epoch (UTC): 30 October 2014 03:35:29
Eccentricity: 0.0042240
inclination: 74.0357°
perigee height: 742 km
apogee height: 803 km
right ascension of ascending node: 320.1574°
argument of perigee: 322.5364°
revolutions per day: 14.35696989
mean anomaly at epoch: 96.8605°
orbit number at epoch: 29726

The dashed part of the orbit path shows where the satellite is in the earth's shadow,  

DLR